CW9181 Weather Reports


Display with metric or nautical units.
time (UTC)temp
F
wind
direction
speed
MPH
gust
MPH
rain 1hr
in
rain 24hr
in
rain mn
in
humidity
%
barometer
mb
20260510214015 84 3 1.0 6.0 0.00 0.00 0.00 46 1012.8
20260510213027 83 174 4.0 7.0 0.00 0.00 0.00 46 1012.9
20260510212046 83 145 2.0 6.0 0.00 0.00 0.00 48 1012.9
20260510211026 83 140 3.0 4.0 0.00 0.00 0.00 48 1013.0
20260510210019 82 224 3.0 6.0 0.00 0.00 0.00 49 1013.2
20260510205030 82 167 4.0 7.0 0.00 0.00 0.00 49 1013.2
20260510204027 82 242 2.0 6.0 0.00 0.00 0.00 50 1013.3
20260510203023 81 137 1.0 6.0 0.00 0.00 0.00 52 1013.4
20260510202045 81 200 4.0 9.0 0.00 0.00 0.00 50 1013.4
20260510201035 80 104 4.0 8.0 0.00 0.00 0.00 50 1013.6
20260510200018 80 203 4.0 8.0 0.00 0.00 0.00 53 1013.7
20260510195015 79 126 4.0 8.0 0.00 0.00 0.00 52 1013.8
20260510194018 79 67 3.0 7.0 0.00 0.00 0.00 56 1013.8
20260510193035 78 220 2.0 11.0 0.00 0.00 0.00 54 1013.8
20260510192032 77 140 3.0 5.0 0.00 0.00 0.00 56 1014.0
20260510191033 76 124 3.0 7.0 0.00 0.00 0.00 57 1014.0
20260510190029 76 245 3.0 8.0 0.00 0.00 0.00 56 1014.2
20260510185032 74 291 3.0 10.0 0.00 0.00 0.00 57 1014.2
20260510184054 75 293 4.0 9.0 0.00 0.00 0.00 56 1014.3
20260510183050 75 168 1.0 10.0 0.00 0.00 0.00 57 1014.3
20260510182025 73 205 2.0 8.0 0.00 0.00 0.00 58 1014.2
20260510181021 73 260 3.0 9.0 0.00 0.00 0.00 60 1014.2
20260510180036 73 115 5.0 10.0 0.00 0.00 0.00 60 1014.3
20260510175030 71 162 4.0 12.0 0.00 0.00 0.00 63 1014.3
20260510174028 71 170 5.0 10.0 0.00 0.00 0.00 63 1014.3
20260510173024 71 169 4.0 9.0 0.00 0.00 0.00 63 1014.2
20260510172018 69 168 3.0 10.0 0.00 0.00 0.00 65 1014.2
20260510171019 69 180 5.0 9.0 0.00 0.00 0.00 65 1014.2
20260510170018 69 169 4.0 8.0 0.00 0.00 0.00 65 1014.3
20260510165038 69 199 2.0 10.0 0.00 0.00 0.00 67 1014.3
20260510164052 68 145 4.0 9.0 0.00 0.00 0.00 67 1014.1
20260510163031 67 145 3.0 8.0 0.00 0.00 0.00 69 1014.1
20260510162031 65 280 4.0 8.0 0.00 0.00 0.00 71 1014.1
20260510161046 65 178 5.0 10.0 0.00 0.00 0.00 72 1014.0
20260510160023 64 131 6.0 10.0 0.00 0.00 0.00 72 1014.0
20260510155026 63 204 3.0 10.0 0.00 0.00 0.00 75 1014.0
20260510154041 62 193 4.0 9.0 0.00 0.00 0.00 75 1014.0
20260510153022 61 158 5.0 9.0 0.00 0.00 0.00 76 1014.0
20260510152023 61 112 5.0 8.0 0.00 0.00 0.00 76 1014.1
20260510151044 61 157 5.0 9.0 0.00 0.00 0.00 78 1014.1
20260510150021 60 122 3.0 8.0 0.00 0.00 0.00 79 1014.0
20260510145017 60 103 6.0 10.0 0.00 0.00 0.00 79 1013.9
20260510144015 59 135 4.0 10.0 0.00 0.00 0.00 80 1013.9
20260510143053 58 116 5.0 13.0 0.00 0.00 0.00 81 1014.0
20260510142026 57 146 6.0 8.0 0.00 0.00 0.00 83 1013.8
20260510141040 57 124 4.0 10.0 0.00 0.00 0.00 85 1013.7
20260510140017 56 118 5.0 9.0 0.00 0.00 0.00 85 1013.5
20260510135033 56 150 4.0 9.0 0.00 0.00 0.00 85 1013.4
20260510134028 56 110 6.0 9.0 0.00 0.00 0.00 85 1013.3
20260510133030 56 154 4.0 7.0 0.00 0.00 0.00 85 1013.2
20260510132053 56 212 5.0 10.0 0.00 0.00 0.00 85 1013.2
20260510131031 56 130 2.0 9.0 0.00 0.00 0.00 85 1012.8
20260510130033 57 155 3.0 7.0 0.00 0.00 0.00 85 1012.8
20260510125032 57 146 4.0 7.0 0.00 0.00 0.00 85 1012.9
20260510124031 57 185 3.0 7.0 0.00 0.00 0.00 85 1012.8
20260510123015 57 169 2.0 5.0 0.00 0.00 0.00 84 1012.8
20260510122016 57 168 3.0 9.0 0.00 0.00 0.00 84 1012.8
20260510121055 57 157 3.0 8.0 0.00 0.00 0.00 84 1012.8
20260510120055 57 185 3.0 8.0 0.00 0.00 0.00 84 1012.8
20260510115033 57 208 3.0 6.0 0.00 0.00 0.00 83 1012.8
20260510114032 57 146 4.0 8.0 0.00 0.00 0.00 83 1012.8
20260510113035 58 149 3.0 8.0 0.00 0.00 0.00 83 1012.7
20260510112055 58 186 3.0 8.0 0.00 0.00 0.00 83 1012.6
20260510111015 58 135 4.0 7.0 0.00 0.00 0.00 82 1012.5
20260510110033 58 179 3.0 6.0 0.00 0.00 0.00 82 1012.5
20260510105016 58 186 5.0 10.0 0.00 0.00 0.00 82 1012.5
20260510104035 58 130 4.0 9.0 0.00 0.00 0.00 82 1012.5
20260510103036 59 153 4.0 9.0 0.00 0.00 0.00 81 1012.6
20260510102035 59 168 3.0 8.0 0.00 0.00 0.00 81 1012.5
20260510101027 59 184 4.0 10.0 0.00 0.00 0.00 80 1012.5
20260510100028 59 184 3.0 10.0 0.00 0.00 0.00 80 1012.3
20260510095016 60 146 4.0 8.0 0.00 0.00 0.00 80 1012.4
20260510094032 60 137 4.0 8.0 0.00 0.00 0.00 79 1012.3
20260510093017 60 157 4.0 9.0 0.00 0.00 0.00 78 1012.3
20260510092020 61 164 4.0 9.0 0.00 0.00 0.00 77 1012.3
20260510091036 61 200 5.0 10.0 0.00 0.00 0.00 76 1012.2
20260510090016 62 164 4.0 9.0 0.00 0.00 0.00 75 1012.1
20260510085019 62 192 4.0 9.0 0.00 0.00 0.00 74 1012.2
20260510084021 63 171 3.0 8.0 0.00 0.00 0.00 74 1012.2
20260510083022 63 147 3.0 9.0 0.00 0.00 0.00 73 1012.1
20260510082026 63 167 3.0 9.0 0.00 0.00 0.00 73 1012.0
20260510081030 63 162 2.0 6.0 0.00 0.00 0.00 73 1012.1
20260510080031 64 172 2.0 6.0 0.00 0.00 0.00 72 1012.1
20260510075055 64 142 2.0 5.0 0.00 0.00 0.00 72 1011.9
20260510074018 64 118 2.0 6.0 0.00 0.00 0.00 72 1012.0
20260510073041 64 143 3.0 9.0 0.00 0.00 0.00 71 1012.1
20260510072045 65 130 4.0 8.0 0.00 0.00 0.00 71 1012.3
20260510071028 65 161 3.0 9.0 0.00 0.00 0.00 71 1012.2
20260510070033 65 154 3.0 6.0 0.00 0.00 0.00 71 1012.2
20260510065032 66 133 4.0 8.0 0.00 0.00 0.00 70 1012.2
20260510064025 66 172 2.0 8.0 0.00 0.00 0.00 70 1012.2
20260510063036 67 180 3.0 11.0 0.00 0.00 0.00 69 1012.2
20260510062031 67 146 6.0 10.0 0.00 0.00 0.00 69 1012.3
20260510061027 68 115 2.0 8.0 0.00 0.00 0.00 68 1012.1
20260510060025 68 188 4.0 8.0 0.00 0.00 0.00 68 1012.0
20260510055022 69 128 4.0 9.0 0.00 0.00 0.00 67 1012.0
20260510054022 69 113 4.0 8.0 0.00 0.00 0.00 67 1012.0
20260510053017 70 141 4.0 8.0 0.00 0.00 0.00 66 1012.1
20260510052032 70 169 4.0 6.0 0.00 0.00 0.00 65 1012.0
20260510051050 70 177 3.0 7.0 0.00 0.00 0.00 64 1011.9
20260510050041 71 155 3.0 9.0 0.00 0.00 0.00 62 1011.8
20260510045036 72 197 4.0 6.0 0.00 0.00 0.00 62 1011.8
20260510044034 72 147 4.0 7.0 0.00 0.00 0.00 62 1011.7
20260510043048 73 176 3.0 6.0 0.00 0.00 0.00 62 1011.7
20260510042026 74 165 3.0 6.0 0.00 0.00 0.00 62 1011.5
20260510041024 75 172 3.0 5.0 0.00 0.00 0.00 62 1011.3
20260510040031 75 186 2.0 6.0 0.00 0.00 0.00 60 1011.1
20260510035028 76 207 3.0 10.0 0.00 0.00 0.00 59 1011.1
20260510034024 77 182 2.0 8.0 0.00 0.00 0.00 59 1011.0
20260510033021 78 212 4.0 6.0 0.00 0.00 0.00 58 1010.8
20260510032021 78 172 2.0 6.0 0.00 0.00 0.00 57 1010.7
20260510031015 79 196 2.0 5.0 0.00 0.00 0.00 56 1010.7
20260510030033 80 180 1.0 6.0 0.00 0.00 0.00 54 1010.6
20260510025049 81 168 2.0 9.0 0.00 0.00 0.00 53 1010.5
20260510024037 82 223 2.0 8.0 0.00 0.00 0.00 51 1010.6
20260510023049 83 157 4.0 11.0 0.00 0.00 0.00 50 1010.4
20260510022022 84 200 3.0 10.0 0.00 0.00 0.00 48 1010.3
20260510021016 85 254 5.0 10.0 0.00 0.00 0.00 47 1010.3
20260510020052 86 209 4.0 12.0 0.00 0.00 0.00 46 1010.3
20260510015030 88 180 4.0 8.0 0.00 0.00 0.00 43 1010.4
20260510014028 89 265 3.0 9.0 0.00 0.00 0.00 34 1010.2
20260510013025 90 278 3.0 6.0 0.00 0.00 0.00 30 1010.1
20260510012047 90 254 3.0 6.0 0.00 0.00 0.00 31 1010.2
20260510011021 90 265 1.0 5.0 0.00 0.00 0.00 31 1010.3
20260510010045 90 335 2.0 5.0 0.00 0.00 0.00 31 1010.2
20260510005026 91 255 3.0 6.0 0.00 0.00 0.00 31 1010.3
20260510004036 90 265 2.0 4.0 0.00 0.00 0.00 32 1010.4
20260510003035 90 105 1.0 6.0 0.00 0.00 0.00 32 1010.4
20260510002033 90 270 3.0 6.0 0.00 0.00 0.00 33 1010.5
20260510001029 90 265 4.0 9.0 0.00 0.00 0.00 35 1010.6
20260510000029 90 303 1.0 6.0 0.00 0.00 0.00 35 1010.6
20260509235031 90 270 2.0 5.0 0.00 0.00 0.00 33 1010.7
20260509234027 90 230 3.0 5.0 0.00 0.00 0.00 35 1010.9
20260509233021 90 254 3.0 8.0 0.00 0.00 0.00 37 1011.0
20260509232019 90 332 3.0 6.0 0.00 0.00 0.00 35 1011.0
20260509231018 89 24 4.0 8.0 0.00 0.00 0.00 37 1011.0
20260509230036 89 298 3.0 9.0 0.00 0.00 0.00 35 1011.1
20260509225036 89 287 3.0 8.0 0.00 0.00 0.00 38 1011.3
20260509224018 89 6 3.0 5.0 0.00 0.00 0.00 39 1011.2
20260509223032 88 253 2.0 6.0 0.00 0.00 0.00 40 1011.4
20260509222035 87 265 7.0 11.0 0.00 0.00 0.00 41 1011.8
20260509221030 87 234 2.0 9.0 0.00 0.00 0.00 41 1011.9
20260509220025 87 277 2.0 8.0 0.00 0.00 0.00 43 1011.8
20260509215043 86 247 3.0 8.0 0.00 0.00 0.00 44 1012.1